Flag for Argentina Weather past 2 weeks in Comodoro Rivadavia, Chubut, Argentina

Now
54 °F

Sunny.


Feels Like: 48 °F
Forecast: 36 / 54 °F
Wind: 23 mph from Northwest

Location: Comodoro Rivadavia Aerodrome

Current Time: Jul 5, 2015 at 3:21:45 PM

Latest Report: Jul 5, 2015 at 3:00 PM


Visibility: 10 mi

Pressure: 29.45 "Hg

Humidity: 41%

Dew point: 30 °F

Location of Comodoro RivadaviaLocation

Historic Weather in Comodoro Rivadavia — Graph

°F

Comodoro Rivadavia temperature yesterday

Maximum temperature yesterday: 57 °F (at 2:00 PM)
Minimum temperature yesterday: 37 °F (at 1:00 AM)
Average temperature yesterday: 46 °F

Past Weeks' High & Low Weather Summary

 TemperatureHumidityPressure
High64 °F (Jun 25, 4:00 PM)93% (Jun 27, 7:00 AM)30.30 "Hg (Jun 27, 7:00 AM)
Low32 °F (Jul 1, 3:00 AM)21% (Jun 23, 4:00 PM)29.39 "Hg (Jun 28, 5:00 AM)
Average47 °F52%29.88 "Hg
* Reported Jun 20 2:00 PM — Jul 5 2:00 PM, Comodoro Rivadavia, Weather by CustomWeather, © 2015

Note: Actual official high and low records may vary slightly from our data, if they occured in-between our weather recording intervals... More about our weather records

Advertising

Comodoro Rivadavia weather history for previous 24 hours

 ConditionsComfort  
Time TempWeatherWind HumidityBarometerVisibility
2:00 PM
Sun, Jul 5
54 °FSunny.21 mph38%29.45 "Hg10 mi
1:00 PM54 °FPassing clouds.18 mph44%29.47 "HgN/A
12:00 PM52 °FSunny.22 mph44%29.47 "Hg10 mi
11:00 AM50 °FSunny.14 mph50%29.47 "Hg10 mi
10:00 AM48 °FSunny.13 mph54%29.47 "Hg10 mi
9:00 AM46 °FPassing clouds.2 mph66%29.47 "HgN/A
8:00 AM48 °FClear.5 mph62%29.45 "Hg10 mi
7:00 AM46 °FClear.5 mph62%29.45 "Hg10 mi
6:00 AM46 °FClear.9 mph66%29.45 "Hg10 mi
5:00 AM46 °FClear.No wind71%29.45 "Hg10 mi
4:00 AM45 °FClear.14 mph71%29.47 "Hg10 mi
3:00 AM45 °FClear.No wind71%29.45 "Hg10 mi
2:00 AM48 °FClear.3 mph43%29.47 "Hg10 mi
1:00 AM50 °FClear.8 mph40%29.50 "Hg10 mi
12:00 AM52 °FClear.3 mph47%29.50 "Hg10 mi
11:00 PM
Sat, Jul 4
45 °FClear.5 mph53%29.50 "Hg10 mi
10:00 PM45 °FClear.5 mph57%29.53 "Hg10 mi
9:00 PM45 °FClear.6 mph53%29.56 "Hg10 mi
8:00 PM48 °FClear.5 mph50%29.56 "Hg10 mi
7:00 PM46 °FClear.5 mph53%29.56 "Hg10 mi
6:00 PM48 °FClear.6 mph62%29.59 "Hg10 mi
5:00 PM55 °FClear.8 mph33%29.62 "Hg10 mi
4:00 PM57 °FSunny.8 mph29%29.62 "Hg10 mi
3:00 PM57 °FSunny.9 mph29%29.68 "Hg10 mi
Weather by CustomWeather, © 2015

See weather overviewHow to use our weather pages